User: anonymous   Login
Location: Unspecified
(0.0000°N, 0.0000°E)
Time: 23:23:52
(UTC+00:00)
Language:

LANDSAT 8 - Orbit

View from above orbital plane
View from above orbital plane
View from above satellite
View from above satellite

Ground track
Ground track

The orbit data is extracted from the following two-line orbital elements,

1 39084U 13008A   16239.29149014  .00000045  00000-0  19991-4 0  9999
2 39084  98.2188 308.0909 0001363  93.4448 266.6906 14.57104960188117
Epoch (UTC): 26 August 2016 06:59:44
Eccentricity: 0.0001363
inclination: 98.2188°
perigee height: 701 km
apogee height: 703 km
right ascension of ascending node: 308.0909°
argument of perigee: 93.4448°
revolutions per day: 14.57104960
mean anomaly at epoch: 266.6906°
orbit number at epoch: 18811

The dashed part of the orbit path shows where the satellite is in the earth's shadow,  

DLR